9A4AM-13 Weather Reports


Display with metric or nautical units.
time (UTC)temp
F
wind
direction
speed
MPH
gust
MPH
rain 1hr
in
rain 24hr
in
rain mn
in
humidity
%
barometer
mb
20260504192747 62 0.0 0.0 0.00 0.00 0.00 10 -204.4
20260504183910 67 0.0 0.0 0.00 0.00 0.00 10 -205.2
20260504182910 68 0.0 0.0 0.00 0.00 0.00 10 -205.4
20260504181912 69 0.0 0.0 0.00 0.00 0.00 10 -205.4
20260504180910 71 0.0 0.0 0.00 0.00 0.00 10 -205.9
20260504175909 73 0.0 0.0 0.00 0.00 0.00 10 -206.1
20260504174909 73 0.0 0.0 0.00 0.00 0.00 10 -206.2
20260504173909 74 0.0 0.0 0.00 0.00 0.00 10 -206.4
20260504172909 76 0.0 0.0 0.00 0.00 0.00 90 -206.6
20260504171909 76 0.0 0.0 0.00 0.00 0.00 83 -206.6
20260504170909 77 0.0 0.0 0.00 0.00 0.00 79 -206.7
20260504150909 86 0.0 0.0 0.00 0.00 0.00 37 -208.2
20260504140909 89 0.0 0.0 0.00 0.00 0.00 33 -208.7
20260504081908 68 0.0 0.0 0.00 0.00 0.00 10 -205.4
20260504080908 67 0.0 0.0 0.00 0.00 0.00 10 -205.1
20260504045908 50 0.0 0.0 0.00 0.00 0.00 10 -202.4
20260504044908 49 0.0 0.0 0.00 0.00 0.00 10 -202.3
20260504043908 48 0.0 0.0 0.00 0.00 0.00 10 -202.2
20260504042908 48 0.0 0.0 0.00 0.00 0.00 10 -202.1
20260504041907 47 0.0 0.0 0.00 0.00 0.00 10 -202.0